Theta_e
273 273 274 274 274 275 275 274 275 277 278 280 281 284 286 287 288 292 294 294 295 299 309 311 308 308 307 306 304 304 302 299
272 272 272 272 273 273 273 272 273 275 277 278 279 281 284 287 289 292 294 294 294 295 307 305 300 305 306 304 303 301 300 298
270 270 270 270 271 271 272 271 272 274 275 277 278 280 283 286 289 293 293 294 295 299 307 305 304 304 304 301 301 300 298 297
269 269 270 270 270 271 271 271 273 273 274 275 276 278 281 285 287 291 294 293 294 302 306 303 303 303 302 302 300 300 299 297
268 268 269 270 270 270 270 272 272 273 274 275 277 279 282 286 287 289 293 293 296 303 305 303 302 300 298 297 296 296 294 297
268 268 268 268 269 270 270 271 272 272 274 276 280 285 285 286 287 289 293 296 300 302 300 299 299 297 295 295 295 293 293 294
267 267 267 268 268 269 270 271 271 273 275 279 286 286 286 287 288 290 291 293 294 293 293 293 294 295 295 295 294 293 293 292
266 267 267 268 268 268 270 271 271 273 275 279 285 286 287 288 289 290 290 292 292 292 292 290 292 294 294 292 292 292 292 292
267 267 268 268 268 270 270 270 271 273 274 277 280 283 285 286 285 286 289 290 290 290 291 291 291 293 292 291 292 291 290 291
268 268 268 267 267 269 269 269 270 271 273 276 279 280 281 283 284 284 285 286 288 288 288 288 289 291 291 290 289 289 288 288
268 268 267 267 267 268 267 267 268 271 272 275 279 279 280 281 283 283 284 285 286 285 287 287 288 290 290 289 288 286 286 286
268 267 266 267 267 267 267 266 268 271 273 274 277 279 280 280 281 283 282 282 283 283 284 285 287 289 290 290 287 287 286 286
268 268 267 266 265 265 265 266 269 270 271 272 275 277 279 279 279 280 281 281 280 281 281 282 285 287 289 290 289 288 286 285
267 267 266 265 265 263 263 265 269 269 270 271 274 275 277 277 278 278 279 279 278 278 278 279 281 283 286 287 288 288 286 287
266 266 265 265 264 262 263 264 268 268 268 270 270 273 275 276 277 278 277 277 277 277 277 279 280 281 283 283 283 284 285 286
266 266 265 264 263 261 262 262 267 268 268 268 269 270 271 274 275 276 278 279 277 277 278 279 278 281 284 284 282 283 285 285
265 264 263 262 261 260 260 261 263 265 266 266 267 268 269 270 272 279 279 280 281 282 280 280 283 284 285 285 286 286 286 284
261 261 260 259 259 258 259 260 261 262 264 265 265 266 266 267 268 268 272 277 279 279 281 282 282 283 284 285 285 285 284 282
257 254 254 255 255 256 257 259 260 260 262 262 262 262 264 265 266 267 267 267 268 274 277 281 282 282 283 284 284 281 282 280
254 252 252 253 255 253 254 258 258 261 260 261 260 261 261 262 264 265 265 265 265 266 270 270 279 280 280 281 279 279 279 280
Wind_Speed
16 17 15 16 16 17 17 19 19 19 17 17 19 20 20 19 20 20 18 18 14 11 14 15 17 18 17 11 13 14 10 10
14 14 15 15 15 16 16 17 18 18 17 19 20 21 20 19 19 20 18 18 17 16 16 16 15 16 16 15 16 17 15 14
13 14 15 16 16 16 15 16 17 17 18 19 20 20 19 20 21 21 20 15 16 16 15 17 19 19 17 17 17 18 18 17
15 15 16 18 18 16 16 17 17 17 17 18 20 20 21 21 20 20 16 19 14 16 19 17 17 18 17 19 19 18 18 19
15 16 17 19 18 19 18 17 17 17 17 18 18 21 21 21 19 19 15 15 17 16 19 18 17 17 16 16 15 15 15 17
16 17 19 20 21 20 20 19 18 17 15 15 16 18 20 20 17 17 15 12 12 16 15 15 15 13 18 17 17 17 16 15
16 18 20 20 21 21 21 19 19 17 16 14 9 15 16 15 15 14 11 9 10 14 16 14 10 19 22 19 17 16 17 16
16 16 18 19 21 21 20 19 19 18 18 14 8 10 10 10 9 12 9 9 14 15 17 15 14 21 21 19 12 14 13 14
14 16 18 18 20 21 21 22 19 18 18 19 16 13 10 12 10 9 9 12 15 14 15 17 13 20 20 17 12 12 11 11
11 13 15 18 20 20 21 22 21 21 21 20 16 15 17 15 13 12 13 12 14 20 16 20 17 20 20 13 7 10 11 10
11 10 12 16 18 17 19 22 23 23 23 19 16 21 18 15 15 16 17 16 19 21 17 24 19 23 19 15 9 8 8 9
11 9 10 14 15 15 16 18 19 16 17 19 23 23 21 20 18 16 20 21 19 24 20 22 19 21 25 22 12 7 8 8
11 11 10 11 13 15 18 18 17 16 20 22 22 18 16 19 17 19 19 20 19 19 17 16 19 24 27 28 21 14 12 9
8 11 10 10 11 14 18 18 17 18 18 18 20 19 18 19 19 16 16 16 13 14 14 15 10 11 27 26 24 21 12 7
7 9 11 12 11 9 12 16 15 17 18 17 17 17 19 16 15 15 15 14 13 14 13 10 10 11 10 10 10 17 12 13
6 6 8 11 10 10 13 11 11 12 13 15 14 15 13 15 14 13 17 16 12 12 11 10 13 13 18 15 10 8 9 9
5 5 7 6 9 11 10 11 9 11 10 10 10 11 11 11 10 27 29 29 30 29 20 13 21 21 20 19 20 19 14 7
3 3 6 7 6 7 11 9 9 10 10 8 10 10 10 9 10 10 12 23 28 27 26 24 21 19 18 17 19 18 12 7
2 4 4 6 7 8 8 8 8 6 8 6 6 6 7 7 7 6 7 8 9 16 21 22 22 21 19 17 13 8 10 8
5 1 4 5 6 6 7 7 8 7 6 6 3 3 3 4 6 7 7 8 6 6 11 13 18 19 21 17 8 7 6 6
Wind_Direction
317 311 308 305 303 300 294 289 285 278 271 267 260 255 253 251 244 245 238 240 242 243 226 189 176 174 167 171 163 158 153 153
299 304 305 303 301 297 294 288 285 281 274 267 259 254 252 252 245 246 239 222 228 232 229 187 166 172 171 165 160 161 151 157
307 310 311 312 308 304 297 291 281 276 272 262 257 251 246 242 237 247 225 229 218 227 201 183 175 170 168 161 163 159 161 159
320 318 318 318 310 309 304 296 287 281 270 261 250 241 236 235 232 234 238 223 222 223 203 175 181 170 170 170 163 162 164 163
323 325 324 318 316 316 314 307 299 292 273 258 243 229 223 225 226 231 246 217 222 213 195 177 171 159 158 157 156 156 158 165
329 328 325 322 323 325 320 318 314 298 286 269 244 224 218 214 219 224 237 216 199 194 165 166 161 159 154 158 155 154 151 155
332 333 328 325 323 323 326 326 323 321 317 307 208 191 194 203 217 216 216 170 156 153 146 143 146 156 152 156 154 157 159 159
333 333 324 327 324 328 330 334 339 341 346 1 17 103 131 143 152 173 147 151 162 148 139 125 124 134 132 136 144 144 153 157
331 330 328 328 331 332 340 347 349 355 1 16 23 45 70 97 90 89 119 164 135 122 106 111 112 119 127 121 129 138 129 132
327 328 330 334 335 340 347 345 355 1 11 15 27 48 59 71 78 87 101 88 109 90 96 93 86 93 97 110 114 120 119 117
334 334 344 340 336 348 348 349 357 3 5 6 20 44 51 60 72 74 76 83 79 85 73 80 83 87 98 99 97 89 95 92
337 344 351 342 342 351 350 353 348 358 1 15 28 36 36 41 47 60 69 66 70 78 67 68 68 69 73 76 80 98 95 83
338 346 354 354 352 353 356 340 353 5 15 19 24 28 31 41 46 47 55 61 56 68 67 60 58 65 67 73 79 85 84 79
348 339 345 3 12 2 342 341 352 9 24 21 23 31 34 36 41 45 48 63 59 58 59 58 54 60 62 67 68 65 72 76
348 354 348 355 9 7 352 342 352 11 12 18 29 29 30 38 36 46 45 48 53 54 57 66 64 60 58 62 57 58 59 54
346 349 353 346 360 1 352 355 5 20 19 16 18 23 31 40 51 50 54 56 57 48 47 50 54 50 57 64 59 60 69 75
343 348 347 2 351 354 1 356 17 28 24 25 21 18 24 29 29 41 51 53 54 57 52 42 55 56 63 63 69 71 67 67
323 350 349 349 3 357 349 359 11 38 25 30 26 23 24 26 28 30 23 42 49 50 55 60 59 62 66 73 73 70 69 71
46 1 354 354 351 341 349 7 15 28 37 32 29 27 30 22 30 44 41 33 23 30 39 44 51 57 69 78 83 71 61 63
126 128 358 355 339 344 345 5 22 29 24 12 17 41 44 28 42 38 40 43 47 29 25 18 42 53 53 50 51 60 64 67